[[{"header":{"parameterUnit":"m.s-1","parameterCategory":1,"la1":30.2991,"la2":30.254,"lo1":-89.0895,"lo2":-89.0444,"dy":0.0017,"dx":0.0017,"nx":28,"ny":28,"refTime":"2025-01-08T03:00:00:Z","depth":0,"parameterNumber":2,"parameterNumberName":"U-component_of_WINDS"},"data":[0,0,0,0,0,0,0,0,0,0,0,0,0,0,0,0,0,0,0,0,0,0,0,0,0,0,0,0,0,0,0,0,0,0,0,0,0,0,0,0,0,0,0,0,0,0,0,0,0,0,0,0,0,0,0,0,0,0,1.1146,1.1146,0,1.114,1.114,1.114,1.1126,1.1125,1.1125,1.1125,1.1117,1.1117,1.1117,0,0,0,0,0,0,0,0,0,0,0,0,0,1.1147,1.1147,1.1146,1.1146,1.1146,1.114,1.114,1.114,1.1126,1.1125,1.1125,1.1125,1.1117,1.1117,1.1117,0,0,0,0,0,0,0,0,0,0,0,0,0,1.1144,1.1147,1.1146,1.1139,1.1138,1.114,1.114,1.114,1.1126,1.1125,1.1125,1.1125,1.1117,1.1117,1.1117,1.1125,0,0,1.1117,1.1117,0,0,0,0,0,0,0,0,1.1144,1.1144,1.114,1.1139,1.1138,1.1133,1.1137,1.1135,1.1126,1.113,1.1125,1.1124,1.1122,1.1122,1.1121,1.1125,1.1124,1.1117,1.1117,1.1117,1.1117,0,0,0,0,0,0,0,1.1144,1.1144,1.1144,1.114,1.1139,1.1135,1.1135,1.1136,1.1129,1.113,1.1129,1.1128,1.1122,1.1121,1.1121,1.1124,1.1117,1.1117,1.1117,1.1117,1.1135,1.1136,0,0,0,0,0,0,1.1146,1.1144,1.1144,1.1144,1.114,1.1136,1.1135,1.1135,1.1129,1.1127,1.1129,1.1128,1.1122,1.1121,1.1121,1.1131,1.1117,1.1117,1.1117,1.1135,1.1136,1.1136,0,0,0,0,0,0,1.1146,1.1146,1.1144,1.1144,1.1143,1.1136,1.1137,1.1135,1.1135,1.1128,1.1126,1.113,1.1121,1.1121,1.1125,1.113,1.1117,1.1117,1.1134,1.1135,1.1136,1.1151,0,0,0,0,0,0,1.1146,1.1146,1.1149,1.1144,1.1143,1.1148,1.1137,1.1136,1.1135,1.1134,1.1128,1.1127,1.1121,1.1125,1.1125,1.113,1.1117,1.1134,1.1135,1.1136,1.115,1.1152,1.1154,0,0,0,0,0,1.1146,1.1153,1.1149,1.1149,1.1147,1.1149,1.1148,1.1141,1.1136,1.1139,1.1135,1.1127,1.113,1.1125,1.1125,1.1131,1.1133,1.1135,1.1136,1.1149,1.1151,1.1154,0,0,0,0,0,0,1.1158,1.1152,1.1148,1.1154,1.1152,1.1146,1.115,1.1144,1.1144,1.1142,1.1134,1.1132,1.1137,1.1135,1.1129,1.1139,1.1131,1.1132,1.1141,1.1143,1.1145,1.1145,1.1117,0,0,0,0,0,1.1162,1.1163,1.1158,1.1163,1.1163,1.1157,1.1157,1.1152,1.115,1.1149,1.1144,1.1142,1.1143,1.1143,1.1143,1.115,1.1148,1.1154,1.1156,1.1157,1.1158,1.1162,1.1165,1.114,1.114,1.114,0,0,1.1168,1.1165,1.1167,1.1166,1.1164,1.1166,1.1156,1.1158,1.116,1.1149,1.1152,1.1149,1.1146,1.1152,1.1154,1.115,1.1165,1.1159,1.116,1.116,1.1164,1.1166,1.1168,1.114,1.114,1.114,0,0,1.1181,1.118,1.1184,1.1183,1.1181,1.1177,1.1178,1.1174,1.1171,1.1175,1.1167,1.1169,1.117,1.1168,1.1167,1.1182,1.1176,1.1183,1.1193,1.1197,1.1199,1.1201,1.1206,1.1208,1.1184,1.1184,1.1184,0,1.119,1.1193,1.1187,1.119,1.119,1.1182,1.1187,1.1186,1.1183,1.1183,1.1179,1.118,1.1178,1.1183,1.1187,1.1187,1.1188,1.1183,1.1199,1.1201,1.1202,1.1207,1.1209,1.1185,1.1184,1.1184,1.1184,0,1.1204,1.1206,1.121,1.1209,1.1209,1.1213,1.1208,1.121,1.1205,1.1202,1.1207,1.1203,1.1203,1.1204,1.1199,1.1209,1.1207,1.1201,1.1192,1.1206,1.121,1.1212,1.1186,1.1185,1.1185,1.1185,0,0,1.1222,1.1219,1.1221,1.1221,1.1218,1.122,1.1224,1.1225,1.1226,1.1225,1.1228,1.123,1.1225,1.1225,1.122,1.1224,1.1236,1.1217,1.1217,1.1221,1.1247,1.1251,1.1253,1.1232,1.1233,1.1233,1.1247,0,1.1234,1.1241,1.1237,1.1244,1.1247,1.124,1.1244,1.1243,1.124,1.1242,1.1239,1.1241,1.1234,1.1234,1.1237,1.1234,1.1241,1.1233,1.1235,1.1235,1.1235,1.1256,1.1259,1.1273,1.1249,1.1249,1.125,0,1.1249,1.125,1.1258,1.1256,1.1257,1.126,1.1261,1.1263,1.1262,1.126,1.1261,1.1256,1.126,1.1252,1.1258,1.1252,1.1253,1.1252,1.1252,1.1251,1.1242,1.1255,1.1277,1.1279,1.1252,1.1252,1.1252,0,1.1262,1.1265,1.127,1.127,1.1269,1.1271,1.1271,1.127,1.1271,1.1272,1.1272,1.1273,1.1274,1.1275,1.127,1.1265,1.1277,1.1268,1.1275,1.1275,1.1276,1.1276,1.1298,1.1278,1.1278,1.1278,1.1278,0,1.1275,1.128,1.1276,1.1279,1.1285,1.1281,1.1286,1.1285,1.1285,1.1288,1.1282,1.1285,1.1279,1.1282,1.1278,1.1284,1.1284,1.1282,1.1281,1.1282,1.1282,1.1282,1.1281,1.1279,1.1279,1.1279,1.1278,0,1.129,1.1287,1.1292,1.1291,1.1291,1.1295,1.1294,1.1297,1.1295,1.1299,1.13,1.1297,1.1299,1.1296,1.1297,1.1295,1.1303,1.1301,1.1303,1.1302,1.1309,1.1308,1.1331,1.1334,1.1312,1.1312,1.1313,0,1.1298,1.1302,1.1301,1.1303,1.1303,1.1306,1.1308,1.1304,1.1306,1.1306,1.1309,1.1312,1.1314,1.1318,1.1316,1.1318,1.1315,1.1323,1.1315,1.1317,1.1315,1.1315,1.1315,1.1324,1.1325,1.1325,1.1325,0,1.1313,1.1312,1.1314,1.1317,1.1319,1.1321,1.1322,1.1324,1.132,1.1322,1.1325,1.1327,1.133,1.1332,1.1334,1.1333,1.1329,1.1328,1.1329,1.133,1.1331,1.1331,1.1307,1.1327,1.1327,1.1327,1.1327,1.1326,1.1324,1.1328,1.1328,1.1332,1.1332,1.1334,1.1337,1.1336,1.1339,1.1342,1.1339,1.1343,1.1344,1.1346,1.1346,1.1349,1.1345,1.1348,1.1348,1.1348,1.1349,1.1332,1.1349,1.1349,1.1349,1.1349,1.1349,0,1.1339,1.1339,1.1342,1.1345,1.1348,1.1344,1.1346,1.1348,1.1352,1.1353,1.1356,1.136,1.1363,1.1362,1.1364,1.1367,1.1365,1.1368,1.1367,1.1367,1.1352,1.1351,1.1369,1.1369,1.1369,1.1369,1.1369,1.1369,1.1346,1.1352,1.1352,1.1359,1.1359,1.1363,1.1365,1.1366,1.1367,1.1372,1.1375,1.1375,1.1375,1.1378,1.1381,1.138,1.1381,1.1385,1.1384,1.137,1.1368,1.1366,1.1364,1.1385,1.1385,1.1398,1.1398,1.1398]},{"header":{"parameterUnit":"m.s-1","parameterCategory":1,"la1":30.2991,"la2":30.254,"lo1":-89.0895,"lo2":-89.0444,"dy":0.0017,"dx":0.0017,"nx":28,"ny":28,"refTime":"2025-01-08T03:00:00:Z","depth":0,"parameterNumber":3,"parameterNumberName":"V-component_of_WINDS"},"data":[0,0,0,0,0,0,0,0,0,0,0,0,0,0,0,0,0,0,0,0,0,0,0,0,0,0,0,0,0,0,0,0,0,0,0,0,0,0,0,0,0,0,0,0,0,0,0,0,0,0,0,0,0,0,0,0,0,0,-5.755,-5.7552,0,-5.7701,-5.7703,-5.7705,-5.7654,-5.765,-5.7647,-5.7644,-5.7793,-5.78,-5.7807,0,0,0,0,0,0,0,0,0,0,0,0,0,-5.7211,-5.7217,-5.755,-5.7552,-5.7554,-5.7701,-5.7703,-5.7705,-5.7654,-5.765,-5.7646,-5.7642,-5.7791,-5.7799,-5.7808,0,0,0,0,0,0,0,0,0,0,0,0,0,-5.736,-5.722,-5.755,-5.7546,-5.7547,-5.7701,-5.7703,-5.7706,-5.7655,-5.765,-5.7645,-5.7641,-5.7788,-5.7799,-5.7809,-5.7973,0,0,-5.7841,-5.7846,0,0,0,0,0,0,0,0,-5.7351,-5.7372,-5.7545,-5.7547,-5.7548,-5.7654,-5.7638,-5.7795,-5.7656,-5.7614,-5.7644,-5.7638,-5.7751,-5.7764,-5.7803,-5.798,-5.7987,-5.7842,-5.7849,-5.7853,-5.7856,0,0,0,0,0,0,0,-5.7341,-5.7365,-5.761,-5.7547,-5.755,-5.7535,-5.7551,-5.7668,-5.7708,-5.7617,-5.7614,-5.7633,-5.7751,-5.7793,-5.7806,-5.7989,-5.7842,-5.7851,-5.7858,-5.7862,-5.8307,-5.8312,0,0,0,0,0,0,-5.7331,-5.7357,-5.7605,-5.7614,-5.7436,-5.7545,-5.7563,-5.7625,-5.7707,-5.7714,-5.7637,-5.763,-5.7777,-5.7794,-5.7811,-5.8008,-5.7853,-5.7863,-5.7869,-5.8302,-5.8308,-5.8314,0,0,0,0,0,0,-5.7323,-5.7353,-5.7599,-5.7485,-5.7515,-5.7556,-5.7626,-5.763,-5.7673,-5.7722,-5.7728,-5.7673,-5.7774,-5.7796,-5.7934,-5.8013,-5.7868,-5.7878,-5.8295,-5.8304,-5.8311,-5.8404,0,0,0,0,0,0,-5.7314,-5.7351,-5.7415,-5.7487,-5.7521,-5.7721,-5.7631,-5.7637,-5.7692,-5.7684,-5.7757,-5.7765,-5.7772,-5.7918,-5.7944,-5.8025,-5.7886,-5.8288,-5.8299,-5.8309,-5.8394,-5.8414,-5.8432,0,0,0,0,0,-5.7302,-5.7434,-5.7419,-5.7449,-5.7603,-5.7725,-5.7745,-5.7752,-5.7698,-5.7762,-5.7794,-5.7762,-5.8,-5.7933,-5.7961,-5.8046,-5.8283,-5.8296,-5.8308,-5.8386,-5.841,-5.8431,0,0,0,0,0,0,-5.7369,-5.7444,-5.7427,-5.7587,-5.7651,-5.7717,-5.7797,-5.7778,-5.7857,-5.7846,-5.785,-5.7867,-5.8008,-5.8041,-5.7964,-5.8209,-5.8133,-5.8152,-5.8182,-5.8206,-5.8225,-5.8214,-5.7895,0,0,0,0,0,-5.7403,-5.7498,-5.7557,-5.7692,-5.7725,-5.7756,-5.781,-5.781,-5.7875,-5.7901,-5.7942,-5.8005,-5.8093,-5.8152,-5.8236,-5.8398,-5.8413,-5.8471,-5.849,-5.8505,-5.8521,-5.8608,-5.8634,-5.8355,-5.8354,-5.8354,0,0,-5.7473,-5.7525,-5.7585,-5.7707,-5.7756,-5.7853,-5.7779,-5.7884,-5.7955,-5.7916,-5.8049,-5.8081,-5.8151,-5.8302,-5.837,-5.8333,-5.8601,-5.8521,-5.8533,-5.854,-5.8623,-5.865,-5.8673,-5.8363,-5.8361,-5.836,0,0,-5.765,-5.77,-5.7817,-5.7869,-5.7945,-5.7964,-5.7992,-5.8062,-5.8082,-5.8216,-5.8188,-5.8272,-5.8425,-5.8476,-5.8522,-5.8717,-5.8691,-5.8745,-5.8843,-5.8928,-5.895,-5.8969,-5.9038,-5.9063,-5.876,-5.8761,-5.8761,0,-5.7727,-5.7873,-5.788,-5.7988,-5.8042,-5.8013,-5.8131,-5.8179,-5.8278,-5.8315,-5.8273,-5.8465,-5.851,-5.8671,-5.8719,-5.8758,-5.8788,-5.8736,-5.8946,-5.8966,-5.8984,-5.905,-5.9076,-5.8767,-5.8766,-5.8765,-5.8765,0,-5.7963,-5.8065,-5.8151,-5.8249,-5.8312,-5.8425,-5.8447,-5.851,-5.8505,-5.8528,-5.8663,-5.8717,-5.8811,-5.8849,-5.8844,-5.901,-5.8985,-5.8945,-5.8869,-5.9017,-5.9079,-5.9104,-5.8775,-5.8773,-5.8771,-5.877,0,0,-5.8187,-5.8288,-5.8319,-5.8363,-5.8444,-5.8522,-5.8632,-5.8726,-5.878,-5.8849,-5.894,-5.907,-5.9034,-5.9086,-5.9086,-5.9161,-5.9311,-5.9112,-5.9113,-5.9146,-5.9496,-5.9525,-5.9554,-5.9295,-5.93,-5.9303,-5.949,0,-5.837,-5.8566,-5.8575,-5.8753,-5.8846,-5.8819,-5.8915,-5.8974,-5.8999,-5.908,-5.9106,-5.9198,-5.9144,-5.9175,-5.9248,-5.9278,-5.9382,-5.9265,-5.9378,-5.9382,-5.9361,-5.9587,-5.9618,-5.9791,-5.9514,-5.9518,-5.9521,0,-5.861,-5.8688,-5.8875,-5.8943,-5.8982,-5.9069,-5.9155,-5.9234,-5.93,-5.9312,-5.9371,-5.936,-5.9471,-5.9392,-5.9543,-5.9464,-5.951,-5.9532,-5.9539,-5.9549,-5.946,-5.9602,-5.9847,-5.9872,-5.9559,-5.9556,-5.9553,0,-5.8753,-5.8905,-5.9037,-5.9075,-5.9157,-5.9219,-5.9255,-5.9317,-5.9372,-5.9447,-5.9483,-5.9569,-5.9616,-5.9682,-5.9694,-5.9635,-5.9846,-5.9768,-5.9858,-5.9857,-5.9903,-5.99,-6.0157,-5.9934,-5.9934,-5.9933,-5.9933,0,-5.8956,-5.9071,-5.9102,-5.9183,-5.9311,-5.9319,-5.9445,-5.9477,-5.9532,-5.9617,-5.9599,-5.9678,-5.969,-5.9772,-5.9782,-5.9906,-5.9927,-5.9939,-5.994,-5.9941,-5.9939,-5.9971,-5.9959,-5.994,-5.9939,-5.9937,-5.9936,0,-5.9138,-5.9163,-5.9304,-5.9371,-5.9391,-5.9482,-5.9538,-5.9615,-5.9637,-5.9745,-5.9771,-5.9806,-5.9902,-5.9921,-6.0033,-6.004,-6.0187,-6.0176,-6.0165,-6.0164,-6.0252,-6.0243,-6.0539,-6.0578,-6.033,-6.0332,-6.0334,0,-5.9265,-5.9354,-5.943,-5.9487,-5.9528,-5.9619,-5.9676,-5.9687,-5.9747,-5.9828,-5.9895,-5.9989,-6.0065,-6.0218,-6.0253,-6.0338,-6.0329,-6.0427,-6.0341,-6.0339,-6.0329,-6.0324,-6.0332,-6.0443,-6.0445,-6.0447,-6.0449,0,-5.9489,-5.9497,-5.9581,-5.967,-5.9739,-5.9809,-5.9875,-5.9922,-5.9941,-6.0009,-6.0108,-6.0167,-6.0283,-6.0375,-6.0461,-6.0496,-6.0476,-6.0476,-6.0501,-6.0502,-6.0492,-6.0498,-6.0209,-6.0469,-6.0467,-6.0465,-6.0464,-6.0464,-5.9647,-5.9724,-5.979,-5.9884,-5.9935,-5.9998,-6.0073,-6.0105,-6.0189,-6.0285,-6.0286,-6.0393,-6.0455,-6.0569,-6.061,-6.0692,-6.0661,-6.0698,-6.0707,-6.0716,-6.0724,-6.0479,-6.0708,-6.0707,-6.0707,-6.0706,-6.0706,0,-5.9869,-5.991,-5.9997,-6.0091,-6.0164,-6.0141,-6.0212,-6.0275,-6.037,-6.0431,-6.0506,-6.0619,-6.0709,-6.075,-6.0839,-6.0897,-6.0889,-6.0919,-6.0915,-6.0923,-6.0747,-6.0716,-6.0924,-6.0924,-6.0924,-6.0924,-6.0924,-6.0924,-5.9993,-6.0122,-6.0138,-6.0292,-6.0332,-6.0438,-6.0481,-6.0538,-6.0586,-6.0714,-6.0789,-6.0816,-6.0869,-6.096,-6.1041,-6.1051,-6.1084,-6.1118,-6.1123,-6.0958,-6.0935,-6.0914,-6.0885,-6.1125,-6.1126,-6.1292,-6.1294,-6.1295]}]]